Regional Weather Roundup
Issued by NWS

Home | Current Version | Previous Version | Text Only | Print | Product List | Glossary Off
Versions: 1 2 3 4 5 6 7 8 9 10 11 12 13 14 15 16 17 18 19 20 21 22 23 24 25 26 27 28 29 30 31 32 33 34 35 36 37 38 39 40 41 42 43 44 45 46 47 48 49 50

000
ASUS43 KMKX 231221
RWRWI

WISCONSIN REGIONAL WEATHER ROUNDUP
NATIONAL WEATHER SERVICE MILWAUKEE/SULLIVAN WI
700 AM CDT FRI JUN 23 2017

NOTE: "FAIR" INDICATES FEW OR NO CLOUDS BELOW 12,000 FEET WITH NO
SIGNIFICANT WEATHER AND/OR OBSTRUCTIONS TO VISIBILITY.

WIZ001-002-006>008-014>016-023>028-231300-
NORTHWEST WISCONSIN

CITY           SKY/WX    TMP DP  RH WIND       PRES   REMARKS
SUPERIOR ARPT  NOT AVBL
ASHLAND        SUNNY     57  51  80 SW8       29.65S
6HR MIN TEMP:  49; 6HR MAX TEMP:  57;

HAYWARD        SUNNY     56  52  86 SW3       29.69R
6HR MIN TEMP:  46; 6HR MAX TEMP:  56;

SIREN          SUNNY     57  50  78 NW7       29.70S
6HR MIN TEMP:  53; 6HR MAX TEMP:  57;

CUMBERLAND     SUNNY     57  50  77 NW6       29.71R
RICE LAKE      SUNNY     58  53  84 W6        29.72R
6HR MIN TEMP:  53; 6HR MAX TEMP:  62;

CHETEK         SUNNY     57  56  96 NW5       29.71R
6HR MIN TEMP:  52; 6HR MAX TEMP:  60;

LADYSMITH      SUNNY     56  55  97 SW3       29.71R
6HR MIN TEMP:  49; 6HR MAX TEMP:  60;

EAU CLAIRE     SUNNY     60  59  96 SW3       29.71R
6HR MIN TEMP:  57; 6HR MAX TEMP:  63;

MENOMONIE      SUNNY     61  57  87 SW6       29.73R
6HR MIN TEMP:  56; 6HR MAX TEMP:  63;

NEW RICHMOND   SUNNY     58  53  84 W9        29.74R
6HR MIN TEMP:  54; 6HR MAX TEMP:  60;

OSCEOLA        SUNNY     60  50  70 W6        29.76R
6HR MIN TEMP:  51; 6HR MAX TEMP:  60;

$$

WIZ003>005-009-010-017-018-231300-
NORTH CENTRAL WISCONSIN

CITY           SKY/WX    TMP DP  RH WIND       PRES   REMARKS
MANITOWISH WTR SUNNY     55  55 100 W3        29.67R
6HR MIN TEMP:  46; 6HR MAX TEMP:  56;

ARBOR VITAE    SUNNY     57  56  97 CALM      29.67R
6HR MIN TEMP:  52; 6HR MAX TEMP:  59;

WOODRUFF       SUNNY     57  56  97 CALM      29.67R
6HR MIN TEMP:  52; 6HR MAX TEMP:  59;

RHINELANDER    SUNNY     58  57  97 SW5       29.68S
6HR MIN TEMP:  48; 6HR MAX TEMP:  59;

EAGLE RIVER    SUNNY     56  56 100 CALM      29.67S
6HR MIN TEMP:  47; 6HR MAX TEMP:  56;

LAND O LAKES   SUNNY     57  57 100 CALM      29.68S
6HR MIN TEMP:  47; 6HR MAX TEMP:  59; 6HR PCP:  0.01;

PHILLIPS       SUNNY     58  54  89 CALM      29.68S
6HR MIN TEMP:  49; 6HR MAX TEMP:  58;

TOMAHAWK       NOT AVBL
MEDFORD        SUNNY     58  56  94 W6        29.70F
6HR MIN TEMP:  54; 6HR MAX TEMP:  60;

MERRILL        SUNNY     59  58  95 CALM      29.69F
6HR MIN TEMP:  53; 6HR MAX TEMP:  61;

$$

WIZ029-030-035-036-043>047-231300-
CENTRAL WISCONSIN

CITY           SKY/WX    TMP DP  RH WIND       PRES   REMARKS
WAUSAU         SUNNY     60  58  92 CALM      29.68F
6HR MIN TEMP:  56; 6HR MAX TEMP:  63;

MOSINEE        MOSUNNY   59  59 100 SW5       29.71F
MARSHFIELD     SUNNY     60  58  92 SW5       29.70F
6HR MIN TEMP:  55; 6HR MAX TEMP:  63;

STEVENS POINT  SUNNY     60  60 100 CALM      29.70F
6HR MIN TEMP:  55; 6HR MAX TEMP:  63; 6HR PCP:  0.01;

WAUPACA        CLOUDY    65  64  99 W6        29.69F
6HR MIN TEMP:  62; 6HR MAX TEMP:  67; 6HR PCP:  0.01;

WAUTOMA        CLOUDY    62  62 100 W7        29.71S
6HR MIN TEMP:  60; 6HR MAX TEMP:  65; 6HR PCP:  0.12;

WISC RAPIDS    MOSUNNY   62  61  96 W3        29.71F
6HR MIN TEMP:  60; 6HR MAX TEMP:  66;

CAMP DOUGLAS   MOSUNNY   61  61 100 CALM      29.71F
                                      6HR PCP:  0.01;

$$

WIZ011>013-019>022-031-037>040-048>050-231300-
NORTHEAST WISCONSIN

CITY           SKY/WX    TMP DP  RH WIND       PRES   REMARKS
ANTIGO         SUNNY     57  57 100 CALM      29.70F
6HR MIN TEMP:  53; 6HR MAX TEMP:  61;

SHAWANO        CLOUDY    64  62  91 W7        29.68S
6HR MIN TEMP:  62; 6HR MAX TEMP:  67;

OCONTO         CLOUDY    63  60  93 W3        29.64F
6HR MIN TEMP:  60; 6HR MAX TEMP:  65;

STURGEON BAY     N/A     64  61  90 W8          N/A
6HR MIN TEMP:  63; 6HR MAX TEMP:  66;

GREEN BAY      CLOUDY    64  64 100 CALM      29.67F
6HR MIN TEMP:  63; 6HR MAX TEMP:  66; 6HR PCP:  0.01;

MANITOWOC      CLOUDY    66  63  90 W10       29.66F
6HR MIN TEMP:  65; 6HR MAX TEMP:  67; 6HR PCP:  0.16;

APPLETON       MOSUNNY   63  63 100 W8        29.68R
CLINTONVILLE   CLOUDY    63  61  94 W8        29.68F
OSHKOSH        CLOUDY    65  63  93 W8        29.68S
6HR MIN TEMP:  64; 6HR MAX TEMP:  67; 6HR PCP:  0.09;

$$

WIZ032>034-041-042-053>061-231300-
SOUTHWEST WISCONSIN

CITY           SKY/WX    TMP DP  RH WIND       PRES   REMARKS
LA CROSSE      SUNNY     64  64 100 S5        29.73S
6HR MIN TEMP:  60; 6HR MAX TEMP:  69;

SPARTA         FOG       58  58 100 CALM      29.74S VSB<1/4
6HR MIN TEMP:  55; 6HR MAX TEMP:  64;

VIROQUA        CLOUDY    60  60 100 W3        29.75S VSB<1/4
6HR MIN TEMP:  59; 6HR MAX TEMP:  65; 6HR PCP:  0.01;

BOSCOBEL       FOG       61  61 100 SW3       29.74S VSB<1/4
6HR MIN TEMP:  59; 6HR MAX TEMP:  67; 6HR PCP:  0.24;

PRAIRIE DU CHI FOG       65  63  96 CALM      29.75R VSB 1/2
6HR MIN TEMP:  62; 6HR MAX TEMP:  67; 6HR PCP:  0.27;

PLATTEVILLE    CLOUDY    63  63 100 NW5       29.74F
6HR MIN TEMP:  63; 6HR MAX TEMP:  71; 6HR PCP:  0.11;

$$

WIZ056-057-062-063-064-067-068-231300-
SOUTH CENTRAL WISCONSIN

CITY           SKY/WX    TMP DP  RH WIND       PRES   REMARKS
REEDSBURG      CLOUDY    62  62 100 CALM      29.72S FOG
6HR MIN TEMP:  61; 6HR MAX TEMP:  64; 6HR PCP:  0.07;

BARABOO/DELLS  CLOUDY    63  62  96 W5        29.72S FOG
6HR MIN TEMP:  60; 6HR MAX TEMP:  64; 6HR PCP:  0.20;

LONE ROCK      FOG       63  62  97 W3        29.72S VSB<1/4
6HR MIN TEMP:  60; 6HR MAX TEMP:  66; 6HR PCP:  0.22;

MINERAL POINT  CLOUDY    63  63 100 CALM      29.73F
MADISON        PTSUNNY   64  63  96 CALM      29.70S
6HR MIN TEMP:  61; 6HR MAX TEMP:  66; 6HR PCP:  0.83;

MIDDLETON      MOSUNNY   64  64  99 CALM      29.72S
6HR MIN TEMP:  62; 6HR MAX TEMP:  67; 6HR PCP:  0.62;

WATERTOWN      PTSUNNY   63  63 100 CALM      29.69S
6HR MIN TEMP:  62; 6HR MAX TEMP:  66; 6HR PCP:  0.01;

MONROE         PTSUNNY   63  61  94 N5        29.72R
JANESVILLE     CLOUDY    64  64 100 NW6       29.69S
$$

WIZ051-052-058>065-066-070>072-231300-
SOUTHEAST WISCONSIN

CITY           SKY/WX    TMP DP  RH WIND       PRES   REMARKS
MILWAUKEE      CLOUDY    67  65  93 NW5       29.66F
6HR MIN TEMP:  65; 6HR MAX TEMP:  67; 6HR PCP:  1.42;

WAUKESHA       MOSUNNY   63  61  94 NW6       29.65S
MILWAUKEE/TIMM CLOUDY    63  59  88 NW3       29.67F
RACINE         CLOUDY    65  63  93 N6        29.67F
6HR MIN TEMP:  64; 6HR MAX TEMP:  67; 6HR PCP:  0.91;

KENOSHA        CLOUDY    65  63  93 N3        29.66F
6HR MIN TEMP:  65; 6HR MAX TEMP:  76; 6HR PCP:  0.54;

FOND DU LAC    MOSUNNY   65  61  87 W8        29.69S
6HR MIN TEMP:  64; 6HR MAX TEMP:  67; 6HR PCP:  0.22;

SHEBOYGAN      CLOUDY    66  64  93 NW10      29.66S
6HR MIN TEMP:  65; 6HR MAX TEMP:  67; 6HR PCP:  0.37;

WEST BEND      PTSUNNY   63  61  94 NW8       29.67F
JUNEAU         CLOUDY    62  60  94 CALM      29.70F
6HR MIN TEMP:  60; 6HR MAX TEMP:  64; 6HR PCP:  0.48;

$$

LSZ147-162-231300-
LAKE SUPERIOR

STATION/POSITION TIME  TEMP    WIND        PRES    WAVE
                       AIR SEA DIR/SP/G            HT/PER
                 (UTC) (F)     (DEG/KT/KT) (MB)    (FT/S)
W MID LAKE BUOY  1150   45 39  250/ 10/ 12 1002.2R   1/ 3
DEVILS ISLAND    1200   55     240/ 16/ 18 1003.1R
SAXON HARBOR     1140   61     200/  8/ 12 1003.4S
$$

LMZ867-665-643>646-231300-
LAKE MICHIGAN

STATION/POSITION TIME  TEMP    WIND        PRES    WAVE
                       AIR SEA DIR/SP/G            HT/PER
                 (UTC) (F)     (DEG/KT/KT) (MB)    (FT/S)
CHAMBERS ISLAND  1140   64     240/  4/  7 1003.7R
S GREEN BAY BUOY 1200   65     270/ 10/ 12 1004.1
N MID LAKE BUOY  1150   59 56  270/  6/  8 1003.2F   1/ 5
NORTHPORT PIER   1


USA.gov is the U.S. government's official web portal to all federal, state and local government web resources and services.